Regional Weather Roundup
Issued by NWS

Home | Current Version | Previous Version | Text Only | Print | Product List | Glossary Off
Versions: 1 2 3 4 5 6 7 8 9 10 11 12 13 14 15 16 17 18 19 20 21 22 23 24 25 26 27 28 29 30 31 32 33 34 35 36 37 38 39 40 41 42 43 44 45 46 47 48 49 50

000
ASUS43 KBIS 030402
RWRND

NORTH DAKOTA REGIONAL WEATHER ROUNDUP
NATIONAL WEATHER SERVICE BISMARCK ND
1100 PM CDT WED SEP 02 2015

NOTE: "FAIR" INDICATES FEW OR NO CLOUDS BELOW 12,000 FEET WITH NO
SIGNIFICANT WEATHER AND/OR OBSTRUCTIONS TO VISIBILITY.


NDZ001>003-009>011-017-030500-
NORTHWEST NORTH DAKOTA

CITY           SKY/WX    TMP DP  RH WIND       PRES   REMARKS
WILLISTON      MOCLDY    76  52  43 CALM      29.64S
MINOT          PTCLDY    70  60  70 E7        29.70R
MINOT AFB      PTCLDY    69  65  85 SE10      29.69R
$$

NDZ018>021-031>035-040>046-030500-
SOUTHWEST NORTH DAKOTA

CITY           SKY/WX    TMP DP  RH WIND       PRES   REMARKS
BISMARCK       CLEAR     73  68  84 SE6       29.74S
DICKINSON      PTCLDY    75  53  46 SE10      29.72S
GARRISON         N/A     73  62  68 SE7       29.72S
HETTINGER ARPT PTCLDY    72  53  51 E7        29.76S
$$

NDZ004>008-012>016-024-026-027-054-030500-
NORTHEAST NORTH DAKOTA

CITY           SKY/WX    TMP DP  RH WIND       PRES   REMARKS
GRAND FORKS    CLEAR     75  66  73 SE12      29.81R
GRND FRKS AFB  CLEAR     74  67  77 S9        29.81S
DEVILS LAKE    CLEAR     75  64  69 SE13      29.77S
$$

NDZ022-023-025-028>030-036>039-047>053-030500-
SOUTHEAST NORTH DAKOTA

CITY           SKY/WX    TMP DP  RH WIND       PRES   REMARKS
FARGO          CLEAR     76  68  76 SE15      29.82S
JAMESTOWN      CLEAR     76  71  85 SE15      29.78S
$$



USA.gov is the U.S. government's official web portal to all federal, state and local government web resources and services.